OK2DDS-5 Weather Reports


time (UTC)temp
F
wind
direction
speed
knots
gust
knots
rain 1hr
in
rain 24hr
in
rain mn
in
humidity
%
barometer
mb
20260503053127 51 0 0.9 20.0 0.00 0.00 0.00 1012.0
20260503051627 50 0 0.9 18.2 0.00 0.00 0.00 1012.0
20260503050127 48 0 0.9 26.9 0.00 0.00 0.00 1012.0
20260503044627 48 0 0.0 29.5 0.00 0.00 0.00 1012.0
20260503043127 48 0 0.9 22.6 0.00 0.00 0.00 1012.0
20260503041627 47 0 0.9 43.4 0.00 0.00 0.00 1012.0
20260503040127 48 0 0.9 15.6 0.00 0.00 0.00 1012.0
20260503034627 47 0 0.9 68.6 0.00 0.00 0.00 1012.0
20260503033127 47 0 0.9 53.9 0.00 0.00 0.00 1012.0
20260503031627 47 0 0.9 28.7 0.00 0.00 0.00 1012.0
20260503030127 48 0 0.0 15.6 0.00 0.00 0.00 1012.0
20260503024627 49 0 0.9 20.9 0.00 0.00 0.00 1012.0
20260503023127 49 0 0.9 19.1 0.00 0.00 0.00 1012.0
20260503021627 49 0 0.9 33.0 0.00 0.00 0.00 1012.0
20260503020127 50 0 0.0 15.6 0.00 0.00 0.00 1012.0
20260503014627 50 0 0.0 20.9 0.00 0.00 0.00 1012.0
20260503013127 51 0 0.9 21.7 0.00 0.00 0.00 1011.0
20260503011627 51 0 0.9 16.5 0.00 0.00 0.00 1011.0
20260503010127 52 0 0.0 20.0 0.00 0.00 0.00 1011.0
20260503004627 52 0 0.0 20.9 0.00 0.00 0.00 1011.0
20260503003127 53 0 0.9 20.0 0.00 0.00 0.00 1011.0
20260503001627 53 0 0.9 18.2 0.00 0.00 0.00 1011.0
20260503000127 53 0 0.9 20.9 0.00 0.00 0.00 1011.0
20260502234627 54 0 0.9 23.5 0.00 0.00 0.00 1011.0
20260502233127 54 0 0.9 33.9 0.00 0.00 0.00 1011.0
20260502231627 55 0 0.9 16.5 0.00 0.00 0.00 1011.0
20260502230127 56 0 0.9 13.9 0.00 0.00 0.00 1011.0
20260502224627 56 0 0.9 20.9 0.00 0.00 0.00 1011.0
20260502223127 57 0 0.9 15.6 0.00 0.00 0.00 1012.0
20260502221627 57 0 0.0 13.9 0.00 0.00 0.00 1012.0
20260502220127 59 0 0.0 12.2 0.00 0.00 0.00 1012.0
20260502214627 60 0 0.9 28.7 0.00 0.00 0.00 1011.0
20260502213127 60 0 0.0 26.1 0.00 0.00 0.00 1012.0
20260502211627 61 0 0.0 23.5 0.00 0.00 0.00 1012.0
20260502210127 61 0 0.0 7.0 0.00 0.00 0.00 1012.0
20260502204627 62 0 0.0 6.1 0.00 0.00 0.00 1012.0
20260502203127 63 0 0.0 11.3 0.00 0.00 0.00 1012.0
20260502201627 63 0 0.0 6.1 0.00 0.00 0.00 1012.0
20260502200127 65 0 0.0 8.7 0.00 0.00 0.00 1012.0
20260502194627 65 0 0.0 8.7 0.00 0.00 0.00 1012.0
20260502193127 66 0 0.0 6.1 0.00 0.00 0.00 1012.0
20260502191627 67 0 0.0 7.8 0.00 0.00 0.00 1012.0
20260502190127 68 0 0.0 9.6 0.00 0.00 0.00 1012.0
20260502184627 69 0 0.0 15.6 0.00 0.00 0.00 1012.0
20260502183127 71 0 0.0 8.7 0.00 0.00 0.00 1011.0
20260502181627 74 0 0.0 7.0 0.00 0.00 0.00 1011.0
20260502180127 78 0 0.0 4.3 0.00 0.00 0.00 1011.0
20260502170127 90 0 0.0 2.6 0.00 0.00 0.00 1011.0
20260502163127 91 0 0.0 2.6 0.00 0.00 0.00 1011.0
20260502161627 91 0 0.0 3.5 0.00 0.00 0.00 1011.0
20260502160127 92 0 0.0 6.1 0.00 0.00 0.00 1011.0
20260502151627 92 0 0.0 2.6 0.00 0.00 0.00 1012.0
20260502150127 92 0 0.0 3.5 0.00 0.00 0.00 1012.0
20260502140127 92 0 0.0 3.5 0.00 0.00 0.00 1013.0
20260502130127 93 0 0.0 4.3 0.00 0.00 0.00 1013.0
20260502123127 96 0 0.0 5.2 0.00 0.00 0.00 1013.0
20260502121627 96 0 0.0 14.8 0.00 0.00 0.00 1014.0
20260502120127 95 0 0.0 11.3 0.00 0.00 0.00 1014.0
20260502114627 92 0 0.0 2.6 0.00 0.00 0.00 1014.0
20260502113126 90 0 0.0 6.1 0.00 0.00 0.00 1014.0
20260502111627 90 0 0.0 15.6 0.00 0.00 0.00 1014.0
20260502110126 91 0 0.0 3.5 0.00 0.00 0.00 1015.0
20260502104627 89 0 0.0 4.3 0.00 0.00 0.00 1015.0
20260502103127 86 0 0.0 5.2 0.00 0.00 0.00 1015.0
20260502101626 86 0 0.0 12.2 0.00 0.00 0.00 1015.0
20260502100221 84 0 0.0 3.5 0.00 0.00 0.00 1016.0
20260502100126 84 0 0.0 3.5 0.00 0.00 0.00 1016.0
20260502090126 70 0 0.0 26.9 0.00 0.00 0.00 1017.0
20260502070126 58 0 0.9 15.6 0.00 0.00 0.00 1017.0
20260502064626 56 0 0.9 18.2 0.00 0.00 0.00 1018.0
20260502063126 55 0 0.9 26.9 0.00 0.00 0.00 1018.0
20260502061626 53 0 0.9 33.0 0.00 0.00 0.00 1018.0
20260502060126 52 0 0.9 28.7 0.00 0.00 0.00 1018.0
20260502054626 50 0 0.9 18.2 0.00 0.00 0.00 1018.0